Погода в Паче

Россия / Кемеровская область (Кузбасс)     55°42′18″N   85°29′41″E
темп.,
°C
ветер,
м/с
пор.,
м/с
влажн.,
%
обл.,
%
осадки,
мм/ч
давл.,
гПа
погр.,
м
13 апреля, вт
вт1301:000зюз41099100 1.5 1025386
04:000зсз3998100 2.3 1025462
07:00+1ссз4795100 2.3 1027381
10:00+1сз459196 0.0 1028555
13:00+1сз468132 0.1 1029703
16:00+4зсз577765 0.1 10291211
19:00+3з3782100 0.3 1029219
22:00+2з41187100 0.3 1030386
14 апреля, ср
ср1401:00+1з51198100 0.6 1030570
04:000з41095100 0.1 1030449
07:000зюз51098100 0.2 1030403
10:00+1юз51297100 0.3 1028533
13:00+1зюз61598100 2.9 1025630
16:00+3зюз81589100 1.2 1023962
19:00+4з71490100 1.9 1021890
22:00+3з41196100 0.2 1023450
15 апреля, чт
чт1501:00+2з3899100 0.4 1024251
04:00+2з2499100 0.0 1024129
07:00+2зюз1299100 0.0 102541
10:00+3юз2398100 0.0 1025164
13:00+4ююз3594100 0.0 1024355
16:00+5юз4693100 0.0 1022524
19:00+4юз3797100 0.0 1021311
22:00+3ююз3899100 0.0 1021262
16 апреля, пт
пт1601:00+3ююз31098100 0.0 1019261
04:00+2ююз3119868 0.0 1017284
07:00+4юз41298100 0.0 1016471
10:00+8юз6128960 0.0 1015509
13:00+12юз7117338 0.0 10131027
16:00+14юз7116373 0.0 10111462
19:00+13зюз6127096 0.4 1010908
22:00+6ссв5794100 1.9 1012337
17 апреля, сб
сб1701:00+2св5993100 3.9 1012392
04:00+1св51097100 2.3 1012522
07:00−2св71392100 4.6 1012553
10:00−3св61395100 4.3 1011590
13:00−2св61292100 7.7 1011689
16:00−1всв61194100 1.4 1011795
19:00−2св61193100 1.9 1011806
22:00−4св61391100 0.4 1012793